GW2490 Weather Reports


Display with metric or nautical units.
time (UTC)temp
F
wind
direction
speed
MPH
gust
MPH
rain 1hr
in
rain 24hr
in
rain mn
in
humidity
%
barometer
mb
20260503044115 0 0.0 0.0 0.00 0.00 0.00
20260503043957 68 344 4.0 9.0 0.00 0.00 0.02 44 1015.0
20260503043612 0 0.0 0.0 0.00 0.00 0.00
20260503043457 68 325 4.0 8.0 0.00 0.00 0.02 44 1015.0
20260503043109 0 0.0 0.0 0.00 0.00 0.00
20260503042957 68 327 6.0 8.0 0.00 0.00 0.02 44 1015.0
20260503042457 68 332 4.0 9.0 0.00 0.00 0.02 44 1014.9
20260503042109 0 0.0 0.0 0.00 0.00 0.00
20260503041957 68 326 4.0 8.0 0.00 0.00 0.02 44 1014.9
20260503041610 0 0.0 0.0 0.00 0.00 0.00
20260503041457 68 328 6.0 11.0 0.00 0.00 0.02 45 1014.8
20260503041109 0 0.0 0.0 0.00 0.00 0.00
20260503040957 68 337 5.0 10.0 0.00 0.00 0.02 44 1014.9
20260503040609 0 0.0 0.0 0.00 0.00 0.00
20260503040457 68 325 7.0 10.0 0.00 0.00 0.02 44 1014.8
20260503040110 0 0.0 0.0 0.00 0.00 0.00
20260503035957 68 351 4.0 9.0 0.00 0.00 0.02 45 1014.8
20260503035610 0 0.0 0.0 0.00 0.00 0.00
20260503035458 68 321 4.0 6.0 0.00 0.00 0.02 44 1014.8
20260503035110 0 0.0 0.0 0.00 0.00 0.00
20260503034957 68 349 3.0 6.0 0.00 0.00 0.02 44 1014.7
20260503034611 0 0.0 0.0 0.00 0.00 0.00
20260503034457 68 336 5.0 8.0 0.00 0.00 0.02 45 1014.6
20260503034108 0 0.0 0.0 0.00 0.00 0.00
20260503033957 68 345 5.0 12.0 0.00 0.00 0.02 44 1014.5
20260503033457 68 338 4.0 7.0 0.00 0.00 0.02 44 1014.4
20260503033108 0 0.0 0.0 0.00 0.00 0.00
20260503032958 69 319 6.0 11.0 0.00 0.00 0.02 44 1014.5
20260503032607 0 0.0 0.0 0.00 0.00 0.00
20260503032457 68 328 6.0 11.0 0.00 0.00 0.02 44 1014.4
20260503031957 69 335 4.0 6.0 0.00 0.00 0.02 44 1014.4
20260503031607 0 0.0 0.0 0.00 0.00 0.00
20260503031457 69 353 4.0 9.0 0.00 0.00 0.02 44 1014.4
20260503031108 0 0.0 0.0 0.00 0.00 0.00
20260503030957 69 330 5.0 8.0 0.00 0.00 0.02 45 1014.3
20260503030608 0 0.0 0.0 0.00 0.00 0.00
20260503030457 69 346 4.0 8.0 0.00 0.00 0.02 45 1014.4
20260503030109 0 0.0 0.0 0.00 0.00 0.00
20260503025957 69 330 4.0 9.0 0.00 0.00 0.02 46 1014.3
20260503025608 0 0.0 0.0 0.00 0.00 0.00
20260503025458 69 343 6.0 11.0 0.00 0.00 0.02 45 1014.2
20260503025107 0 0.0 0.0 0.00 0.00 0.00
20260503024957 69 337 5.0 9.0 0.00 0.00 0.02 46 1014.4
20260503024608 0 0.0 0.0 0.00 0.00 0.00
20260503024457 69 330 4.0 9.0 0.00 0.00 0.02 46 1014.3
20260503024108 0 0.0 0.0 0.00 0.00 0.00
20260503023957 69 326 3.0 7.0 0.00 0.00 0.02 46 1014.2
20260503023605 0 0.0 0.0 0.00 0.00 0.00
20260503023457 69 340 7.0 13.0 0.00 0.00 0.02 46 1014.2
20260503023105 0 0.0 0.0 0.00 0.00 0.00
20260503022958 69 348 5.0 12.0 0.00 0.00 0.02 46 1014.3
20260503022605 0 0.0 0.0 0.00 0.00 0.00
20260503022458 69 330 6.0 9.0 0.00 0.00 0.02 46 1014.3
20260503022106 0 0.0 0.0 0.00 0.00 0.00
20260503021957 69 328 7.0 12.0 0.00 0.00 0.02 45 1014.4
20260503021605 0 0.0 0.0 0.00 0.00 0.00
20260503021458 69 342 5.0 9.0 0.00 0.00 0.02 46 1014.4
20260503021106 0 0.0 0.0 0.00 0.00 0.00
20260503020957 69 334 6.0 13.0 0.00 0.00 0.02 46 1014.4
20260503020606 0 0.0 0.0 0.00 0.00 0.00
20260503020457 69 2 5.0 9.0 0.00 0.00 0.02 46 1014.4
20260503020106 0 0.0 0.0 0.00 0.00 0.00
20260503015957 70 338 6.0 10.0 0.00 0.00 0.02 46 1014.4
20260503015605 0 0.0 0.0 0.00 0.00 0.00
20260503015457 70 351 6.0 10.0 0.00 0.00 0.02 45 1014.3
20260503014957 70 326 4.0 7.0 0.00 0.00 0.02 46 1014.6
20260503014457 70 327 6.0 10.0 0.00 0.00 0.02 46 1014.6
20260503013957 70 335 6.0 12.0 0.00 0.00 0.02 46 1014.6
20260503013457 70 340 8.0 12.0 0.00 0.00 0.02 47 1014.6
20260503013103 0 0.0 0.0 0.00 0.00 0.00
20260503012957 70 328 7.0 10.0 0.00 0.00 0.02 47 1014.6
20260503012604 0 0.0 0.0 0.00 0.00 0.00
20260503012457 70 328 7.0 10.0 0.00 0.00 0.02 47 1014.7
20260503011512 70 328 4.0 6.0 0.00 0.00 0.02 47 1014.7
20260503011104 0 0.0 0.0 0.00 0.00 0.00
20260503010957 69 312 4.0 8.0 0.00 0.00 0.02 48 1014.7
20260503010604 0 0.0 0.0 0.00 0.00 0.00
20260503010457 69 308 4.0 8.0 0.00 0.00 0.02 48 1014.8
20260503010103 0 0.0 0.0 0.00 0.00 0.00
20260503005957 69 329 6.0 9.0 0.00 0.00 0.02 49 1014.8
20260503005604 0 0.0 0.0 0.00 0.00 0.00
20260503005457 69 325 7.0 15.0 0.00 0.00 0.02 48 1014.9
20260503005104 0 0.0 0.0 0.00 0.00 0.00
20260503004957 69 325 6.0 12.0 0.00 0.00 0.02 49 1014.9
20260503004604 0 0.0 0.0 0.00 0.00 0.00
20260503004457 69 316 6.0 11.0 0.00 0.00 0.02 50 1014.8
20260503003958 68 319 6.0 9.0 0.00 0.00 0.02 49 1015.0
20260503003601 0 0.0 0.0 0.00 0.00 0.00
20260503003457 68 315 8.0 15.0 0.00 0.00 0.02 51 1015.0
20260503003101 0 0.0 0.0 0.00 0.00 0.00
20260503002959 68 339 6.0 10.0 0.00 0.00 0.02 50 1014.9
20260503002601 0 0.0 0.0 0.00 0.00 0.00
20260503002457 68 308 7.0 10.0 0.00 0.00 0.02 52 1015.0
20260503002101 0 0.0 0.0 0.00 0.00 0.00
20260503001957 69 319 6.0 11.0 0.00 0.00 0.02 52 1015.1
20260503001612 0 0.0 0.0 0.00 0.00 0.00
20260503001457 69 336 8.0 12.0 0.00 0.00 0.02 50 1014.9
20260503001101 0 0.0 0.0 0.00 0.00 0.00
20260503000957 69 314 6.0 12.0 0.00 0.00 0.02 50 1015.0
20260503000602 0 0.0 0.0 0.00 0.00 0.00
20260503000457 69 300 5.0 9.0 0.00 0.00 0.02 50 1015.0
20260502235959 69 332 7.0 14.0 0.00 0.00 0.02 48 1015.0
20260502235602 0 0.0 0.0 0.00 0.00 0.00
20260502235457 69 331 8.0 11.0 0.00 0.00 0.02 48 1015.0
20260502235102 0 0.0 0.0 0.00 0.00 0.00
20260502234957 69 310 6.0 9.0 0.00 0.00 0.02 50 1015.1
20260502234602 0 0.0 0.0 0.00 0.00 0.00
20260502234457 69 316 8.0 13.0 0.00 0.00 0.02 51 1015.1
20260502234059 0 0.0 0.0 0.00 0.00 0.00
20260502233958 69 311 9.0 13.0 0.00 0.00 0.02 51 1015.2
20260502233559 0 0.0 0.0 0.00 0.00 0.00
20260502233459 69 311 5.0 11.0 0.00 0.00 0.02 50 1015.2
20260502233100 0 0.0 0.0 0.00 0.00 0.00
20260502232957 68 310 4.0 6.0 0.00 0.00 0.02 52 1015.3
20260502232559 0 0.0 0.0 0.00 0.00 0.00
20260502232458 68 310 5.0 8.0 0.00 0.00 0.02 51 1015.3
20260502231957 68 293 5.0 8.0 0.00 0.00 0.02 54 1015.4
20260502231600 0 0.0 0.0 0.00 0.00 0.00
20260502231457 67 297 5.0 12.0 0.00 0.00 0.02 55 1015.4
20260502231100 0 0.0 0.0 0.00 0.00 0.00
20260502230957 67 305 6.0 9.0 0.00 0.00 0.02 56 1015.5
20260502230559 0 0.0 0.0 0.00 0.00 0.00
20260502230458 67 316 5.0 8.0 0.00 0.00 0.02 56 1015.5
20260502230100 0 0.0 0.0 0.00 0.00 0.00
20260502225957 67 328 6.0 11.0 0.00 0.00 0.02 57 1015.6
20260502225600 0 0.0 0.0 0.00 0.00 0.00
20260502225458 67 310 7.0 12.0 0.00 0.00 0.02 57 1015.7
20260502225100 0 0.0 0.0 0.00 0.00 0.00
20260502224957 67 303 6.0 10.0 0.00 0.00 0.02 56 1015.7
20260502224557 0 0.0 0.0 0.00 0.00 0.00
20260502224457 67 294 6.0 10.0 0.00 0.00 0.02 56 1015.8
20260502223957 67 309 6.0 9.0 0.00 0.00 0.02 57 1015.9
20260502223457 66 311 6.0 9.0 0.00 0.00 0.02 58 1015.8
20260502223055 0 0.0 0.0 0.00 0.00 0.00
20260502222957 66 298 7.0 11.0 0.00 0.00 0.02 58 1015.9
20260502222457 66 302 5.0 9.0 0.00 0.00 0.02 60 1016.0
20260502222056 0 0.0 0.0 0.00 0.00 0.00
20260502221958 66 300 6.0 9.0 0.00 0.00 0.02 60 1016.1
20260502221555 0 0.0 0.0 0.00 0.00 0.00
20260502221457 65 294 6.0 9.0 0.00 0.00 0.02 61 1016.1
20260502221055 0 0.0 0.0 0.00 0.00 0.00
20260502220957 66 314 7.0 9.0 0.00 0.00 0.02 62 1016.2
20260502220555 0 0.0 0.0 0.00 0.00 0.00
20260502220458 66 300 5.0 8.0 0.00 0.00 0.02 61 1016.4
20260502220055 0 0.0 0.0 0.00 0.00 0.00
20260502215957 65 292 5.0 7.0 0.00 0.00 0.02 60 1016.4
20260502215556 0 0.0 0.0 0.00 0.00 0.00
20260502215457 65 303 6.0 9.0 0.00 0.00 0.02 61 1016.4
20260502214957 66 292 6.0 9.0 0.00 0.00 0.02 61 1016.4
20260502214555 0 0.0 0.0 0.00 0.00 0.00
20260502214457 65 302 4.0 6.0 0.00 0.00 0.02 60 1016.5
20260502214053 0 0.0 0.0 0.00 0.00 0.00
20260502213957 65 299 7.0 10.0 0.00 0.00 0.02 60 1016.5
20260502213457 65 302 5.0 9.0 0.00 0.00 0.02 61 1016.7
20260502212957 64 305 6.0 10.0 0.00 0.00 0.02 61 1016.7
20260502212457 64 308 6.0 9.0 0.00 0.00 0.02 62 1016.7
20260502211959 64 300 6.0 9.0 0.00 0.00 0.02 63 1016.7
20260502211549 0 0.0 0.0 0.00 0.00 0.00
20260502211457 64 306 6.0 11.0 0.00 0.00 0.02 64 1016.8
20260502211050 0 0.0 0.0 0.00 0.00 0.00
20260502210957 63 319 5.0 9.0 0.00 0.00 0.02 65 1016.8
20260502210457 63 312 8.0 10.0 0.00 0.00 0.02 66 1016.8
20260502210049 0 0.0 0.0 0.00 0.00 0.00
20260502205958 63 304 6.0 9.0 0.00 0.00 0.02 65 1016.9
20260502205550 0 0.0 0.0 0.00 0.00 0.00
20260502205458 62 311 5.0 8.0 0.00 0.00 0.02 67 1017.0
20260502205050 0 0.0 0.0 0.00 0.00 0.00
20260502204957 63 308 7.0 10.0 0.00 0.00 0.02 68 1017.0
20260502204550 0 0.0 0.0 0.00 0.00 0.00
20260502204457 63 291 5.0 9.0 0.00 0.00 0.02 67 1017.0
20260502204047 0 0.0 0.0 0.00 0.00 0.00
20260502203957 63 306 6.0 10.0 0.00 0.00 0.02 66 1017.0
20260502203457 62 303 6.0 12.0 0.00 0.00 0.02 66 1017.0
20260502202957 62 315 8.0 13.0 0.00 0.00 0.02 65 1017.0
20260502202548 0 0.0 0.0 0.00 0.00 0.00
20260502202457 62 313 6.0 9.0 0.00 0.00 0.02 66 1017.1
20260502202047 0 0.0 0.0 0.00 0.00 0.00
20260502201957 61 306 6.0 9.0 0.00 0.00 0.02 66 1017.1
20260502201548 0 0.0 0.0 0.00 0.00 0.00
20260502201457 61 311 7.0 11.0 0.00 0.00 0.02 68 1017.0
20260502200957 61 316 6.0 15.0 0.00 0.00 0.02 69 1017.1
20260502200548 0 0.0 0.0 0.00 0.00 0.00
20260502200457 60 320 5.0 8.0 0.00 0.00 0.02 70 1017.3
20260502200048 0 0.0 0.0 0.00 0.00 0.00
20260502195959 60 311 8.0 10.0 0.00 0.00 0.02 70 1017.2
20260502195548 0 0.0 0.0 0.00 0.00 0.00
20260502195457 60 316 4.0 8.0 0.00 0.00 0.02 72 1017.4
20260502195048 0 0.0 0.0 0.00 0.00 0.00
20260502194958 60 318 6.0 11.0 0.00 0.00 0.02 73 1017.4
20260502194457 59 303 5.0 9.0 0.00 0.00 0.02 74 1017.3
20260502194045 0 0.0 0.0 0.00 0.00 0.00
20260502193957 59 307 5.0 9.0 0.00 0.00 0.02 74 1017.5
20260502193546 0 0.0 0.0 0.00 0.00 0.00
20260502193457 59 314 5.0 9.0 0.00 0.00 0.02 75 1017.5
20260502193045 0 0.0 0.0 0.00 0.00 0.00
20260502192958 58 303 7.0 9.0 0.00 0.00 0.02 75 1017.6
20260502192545 0 0.0 0.0 0.00 0.00 0.00
20260502192046 0 0.0 0.0 0.00 0.00 0.00
20260502192032 58 304 6.0 9.0 0.00 0.00 0.02 77 1017.5
20260502191546 0 0.0 0.0 0.00 0.00 0.00
20260502191457 58 306 4.0 6.0 0.00 0.00 0.02 78 1017.7
20260502191045 0 0.0 0.0 0.00 0.00 0.00
20260502190959 58 306 6.0 9.0 0.00 0.00 0.02 78 1017.7
20260502190546 0 0.0 0.0 0.00 0.00 0.00
20260502190457 58 315 4.0 6.0 0.00 0.00 0.02 79 1017.7
20260502190046 0 0.0 0.0 0.00 0.00 0.00
20260502185957 58 297 5.0 7.0 0.00 0.00 0.02 78 1017.7
20260502185546 0 0.0 0.0 0.00 0.00 0.00
20260502185458 58 298 4.0 6.0 0.00 0.00 0.02 79 1017.8
20260502185046 0 0.0 0.0 0.00 0.00 0.00
20260502184957 57 315 5.0 10.0 0.00 0.00 0.02 79 1017.7
20260502184457 57 310 7.0 11.0 0.00 0.00 0.02 80 1017.7
20260502183957 56 286 4.0 6.0 0.00 0.00 0.02 80 1017.8
20260502183543 0 0.0 0.0 0.00 0.00 0.00
20260502183458 56 299 5.0 9.0 0.00 0.00 0.02 81 1018.0
20260502183043 0 0.0 0.0 0.00 0.00 0.00
20260502182957 55 301 5.0 8.0 0.00 0.00 0.02 82 1017.9
20260502182544 0 0.0 0.0 0.00 0.00 0.00
20260502182457 55 321 5.0 9.0 0.00 0.00 0.02 83 1017.7
20260502182044 0 0.0 0.0 0.00 0.00 0.00
20260502181958 55 309 6.0 10.0 0.00 0.00 0.02 84 1017.6
20260502181544 0 0.0 0.0 0.00 0.00 0.00
20260502181457 54 316 5.0 8.0 0.00 0.00 0.02 85 1017.5
20260502181043 0 0.0 0.0 0.00 0.00 0.00
20260502180957 54 327 6.0 11.0 0.00 0.00 0.02 85 1017.3
20260502180544 0 0.0 0.0 0.00 0.00 0.00
20260502180457 54 312 8.0 13.0 0.00 0.00 0.02 85 1017.4
20260502170457 53 301 6.0 8.0 0.00 0.00 0.02 88 1018.0
20260502164039 0 0.0 0.0 0.00 0.00 0.00
20260502163957 53 313 6.0 11.0 0.00 0.00 0.02 88 1017.7
20260502163536 0 0.0 0.0 0.00 0.00 0.00
20260502163457 53 316 6.0 9.0 0.00 0.00 0.02 87 1017.6
20260502163037 0 0.0 0.0 0.00 0.00 0.00
20260502162957 53 322 6.0 9.0 0.00 0.00 0.02 88 1017.6
20260502162536 0 0.0 0.0 0.00 0.00 0.00
20260502162457 53 318 6.0 11.0 0.00 0.00 0.02 87 1017.6
20260502162036 0 0.0 0.0 0.00 0.00 0.00
20260502161957 53 310 4.0 8.0 0.00 0.00 0.02 87 1017.6
20260502161537 0 0.0 0.0 0.00 0.00 0.00
20260502161457 53 310 5.0 9.0 0.00 0.00 0.02 87 1017.5
20260502161037 0 0.0 0.0 0.00 0.00 0.00
20260502160957 53 311 5.0 9.0 0.00 0.00 0.02 87 1017.5
20260502160536 0 0.0 0.0 0.00 0.00 0.00
20260502160457 53 313 5.0 8.0 0.00 0.00 0.02 87 1017.4
20260502151957 52 315 8.0 14.0 0.00 0.00 0.01 89 1017.6
20260502151457 51 313 7.0 10.0 0.00 0.00 0.01 89 1017.6
20260502151034 0 0.0 0.0 0.00 0.00 0.00
20260502150957 51 318 6.0 11.0 0.00 0.00 0.01 90 1017.7
20260502150535 0 0.0 0.0 0.00 0.00 0.00
20260502150457 51 318 8.0 12.0 0.00 0.00 0.01 91 1017.8
20260502130527 0 0.0 0.0 0.00 0.00 0.00
20260502130457 51 340 6.0 9.0 0.00 0.00 0.00 92 1017.1
20260502123528 0 0.0 0.0 0.00 0.00 0.00
20260502123458 51 323 8.0 13.0 0.00 0.00 0.00 90 1016.8
20260502123028 0 0.0 0.0 0.00 0.00 0.00
20260502122957 51 318 7.0 13.0 0.00 0.00 0.00 90 1016.8
20260502122528 0 0.0 0.0 0.00 0.00 0.00
20260502122457 51 324 6.0 9.0 0.00 0.00 0.00 89 1016.9
20260502121957 51 313 6.0 8.0 0.00 0.00 0.00 89 1016.7
20260502121525 0 0.0 0.0 0.00 0.00 0.00
20260502121457 51 323 6.0 11.0 0.00 0.00 0.00 89 1016.6
20260502121026 0 0.0 0.0 0.00 0.00 0.00
20260502120957 51 318 7.0 11.0 0.00 0.00 0.00 89 1016.5
20260502120525 0 0.0 0.0 0.00 0.00 0.00
20260502120457 51 322 7.0 10.0 0.00 0.00 0.00 89 1016.5
20260502115523 0 0.0 0.0 0.00 0.00 0.00
20260502115458 51 318 9.0 13.0 0.00 0.00 0.00 89 1016.8
20260502114957 51 316 6.0 9.0 0.00 0.00 0.00 89 1016.8
20260502114457 51 320 4.0 7.0 0.00 0.00 0.00 89 1016.7
20260502114019 0 0.0 0.0 0.00 0.00 0.00
20260502113958 51 312 6.0 9.0 0.00 0.00 0.00 89 1016.9
20260502113517 0 0.0 0.0 0.00 0.00 0.00
20260502113458 52 315 6.0 9.0 0.00 0.00 0.00 89 1016.9
20260502113018 0 0.0 0.0 0.00 0.00 0.00
20260502112957 52 330 5.0 7.0 0.00 0.00 0.00 88 1016.8
20260502112517 0 0.0 0.0 0.00 0.00 0.00
20260502112457 52 318 6.0 9.0 0.00 0.00 0.00 88 1016.8
20260502112018 0 0.0 0.0 0.00 0.00 0.00
20260502111957 52 319 6.0 8.0 0.00 0.00 0.00 87 1016.8
20260502111518 0 0.0 0.0 0.00 0.00 0.00
20260502111457 52 319 6.0 12.0 0.00 0.00 0.00 87 1016.7
20260502111018 0 0.0 0.0 0.00 0.00 0.00
20260502110958 52 319 7.0 9.0 0.00 0.00 0.00 86 1016.7
20260502110518 0 0.0 0.0 0.00 0.00 0.00
20260502110457 52 329 6.0 11.0 0.00 0.00 0.00 86 1016.6
20260502105957 53 318 7.0 13.0 0.00 0.00 0.00 85 1016.5
20260502105457 53 319 9.0 11.0 0.00 0.00 0.00 84 1016.2
20260502104957 53 332 8.0 12.0 0.00 0.00 0.00 84 1016.2
20260502104530 0 0.0 0.0 0.00 0.00 0.00
20260502104457 53 327 7.0 10.0 0.00 0.00 0.00 83 1016.2
20260502104035 0 0.0 0.0 0.00 0.00 0.00
20260502103957 53 322 8.0 12.0 0.00 0.00 0.00 83 1016.2
20260502103458 53 323 8.0 10.0 0.00 0.00 0.00 83 1016.4
20260502102957 54 336 9.0 12.0 0.00 0.00 0.00 82 1016.2
20260502102518 0 0.0 0.0 0.00 0.00 0.00
20260502102458 54 328 9.0 13.0 0.00 0.00 0.00 81 1016.2
20260502101957 54 329 8.0 10.0 0.00 0.00 0.00 81 1016.4
20260502101535 0 0.0 0.0 0.00 0.00 0.00
20260502101457 54 330 8.0 11.0 0.00 0.00 0.00 81 1016.0
20260502101021 0 0.0 0.0 0.00 0.00 0.00
20260502100958 54 329 8.0 11.0 0.00 0.00 0.00 81 1016.2
20260502100531 0 0.0 0.0 0.00 0.00 0.00
20260502100457 54 330 7.0 10.0 0.00 0.00 0.00 80 1016.4
20260502091457 57 325 7.0 12.0 0.00 0.00 0.00 72 1016.5
20260502091013 0 0.0 0.0 0.00 0.00 0.00
20260502090958 57 319 6.0 10.0 0.00 0.00 0.00 72 1016.4
20260502090541 0 0.0 0.0 0.00 0.00 0.00
20260502090457 57 296 4.0 9.0 0.00 0.00 0.00 71 1016.5
20260502071457 60 327 5.0 8.0 0.00 0.00 0.00 63 1016.5
20260502070957 60 299 3.0 7.0 0.00 0.00 0.00 63 1016.5
20260502070518 0 0.0 0.0 0.00 0.00 0.00
20260502070457 60 326 5.0 7.0 0.00 0.00 0.00 63 1016.5
20260502070010 0 0.0 0.0 0.00 0.00 0.00
20260502065957 60 301 3.0 6.0 0.00 0.00 0.00 63 1016.5
20260502065530 0 0.0 0.0 0.00 0.00 0.00
20260502065457 60 299 4.0 8.0 0.00 0.00 0.00 63 1016.2
20260502064957 60 311 3.0 7.0 0.00 0.00 0.00 62 1016.2
20260502064507 0 0.0 0.0 0.00 0.00 0.00
20260502064457 60 313 7.0 11.0 0.00 0.00 0.00 62 1016.2
20260502063957 60 324 4.0 7.0 0.00 0.00 0.00 62 1016.2
20260502063516 0 0.0 0.0 0.00 0.00 0.00
20260502063457 60 309 4.0 8.0 0.00 0.00 0.00 61 1016.4
20260502063008 0 0.0 0.0 0.00 0.00 0.00
20260502062957 60 319 6.0 8.0 0.00 0.00 0.00 61 1016.4
20260502062457 60 315 3.0 6.0 0.00 0.00 0.00 62 1016.1
20260502061957 60 314 6.0 9.0 0.00 0.00 0.00 62 1016.1
20260502061508 0 0.0 0.0 0.00 0.00 0.00
20260502061457 60 317 5.0 8.0 0.00 0.00 0.00 62 1016.1
20260502061028 0 0.0 0.0 0.00 0.00 0.00
20260502060959 60 321 3.0 6.0 0.00 0.00 0.00 62 1016.0
20260502060507 0 0.0 0.0 0.00 0.00 0.00
20260502060457 60 308 5.0 9.0 0.00 0.00 0.00 62 1016.0
20260502060021 0 0.0 0.0 0.00 0.00 0.00
20260502055958 60 326 5.0 11.0 0.00 0.00 0.00 61 1015.9
20260502055516 0 0.0 0.0 0.00 0.00 0.00
20260502055457 60 318 6.0 10.0 0.00 0.00 0.00 61 1016.0
20260502054957 60 332 4.0 9.0 0.00 0.00 0.00 61 1015.9
20260502054457 60 335 6.0 12.0 0.00 0.00 0.00 61 1015.9
20260502054030 0 0.0 0.0 0.00 0.00 0.00
20260502053957 60 316 4.0 6.0 0.00 0.00 0.00 61 1015.9
20260502053457 60 333 6.0 8.0 0.00 0.00 0.00 61 1016.0
20260502052957 60 321 5.0 7.0 0.00 0.00 0.00 61 1015.9
20260502052457 60 321 4.0 6.0 0.00 0.00 0.00 61 1016.0
20260502051957 60 327 6.0 12.0 0.00 0.00 0.00 62 1016.0
20260502051500 60 322 4.0 7.0 0.00 0.00 0.00 62 1016.0
20260502051003 0 0.0 0.0 0.00 0.00 0.00
20260502050957 60 326 5.0 9.0 0.00 0.00 0.00 62 1016.1
20260502050457 60 335 5.0 9.0 0.00 0.00 0.00 62 1016.1
20260502050010 0 0.0 0.0 0.00 0.00 0.00
20260502045957 60 329 5.0 8.0 0.00 0.00 0.00 62 1016.1
20260502045526 0 0.0 0.0 0.00 0.00 0.00
20260502045457 60 322 4.0 6.0 0.00 0.00 0.00 62 1016.1
20260502045010 0 0.0 0.0 0.00 0.00 0.00
20260502044957 60 330 3.0 6.0 0.00 0.00 0.00 62 1016.2
20260502044457 60 326 5.0 7.0 0.00 0.00 0.00 62 1016.2